Wind_Speed
26 34 36 33 27 26 32 37 42 46 45 50 48 47 36 27 27 29 36 40 40 41 41 41 38 37 36 36 35 36 40 44 42 39 38 37 36 36 35 35 36 37 38
24 31 34 30 27 28 33 36 39 44 43 45 42 39 39 25 13 13 23 32 36 37 37 37 37 35 34 33 34 39 41 39 34 32 30 30 31 30 31 32 33 34 34
19 24 30 30 29 31 33 37 40 42 41 39 38 32 32 28 12 4 13 23 29 32 32 33 32 32 31 33 38 37 33 31 29 26 25 23 24 24 23 24 26 28 31
26 26 23 26 27 29 32 36 39 38 40 36 33 29 25 26 20 5 5 17 22 25 27 28 28 28 33 38 35 29 28 27 25 26 26 24 23 19 26 25 24 23 24
28 28 28 27 27 28 31 32 35 35 35 34 30 26 22 19 19 15 6 11 18 22 25 26 29 34 34 31 26 28 27 26 27 26 27 29 27 26 23 25 25 24 26
28 28 27 28 29 29 29 31 32 33 33 31 28 24 20 17 12 11 10 10 14 18 22 25 29 30 27 26 27 27 27 28 30 30 30 32 32 31 26 23 26 29 33
30 29 30 30 28 28 29 29 28 30 30 31 28 23 18 15 12 9 7 9 13 17 21 23 24 24 26 27 28 30 29 30 30 31 32 32 34 31 28 26 28 30 35
31 32 32 32 31 31 32 31 29 27 26 27 27 23 20 16 13 10 10 11 11 13 14 16 17 18 21 25 30 33 33 34 33 33 34 35 34 33 32 33 32 33 35
35 36 36 35 35 33 31 30 30 30 28 25 24 23 23 20 17 13 12 11 11 13 15 17 19 22 24 27 30 33 35 37 37 36 37 37 37 37 38 38 38 37 34
39 40 40 40 39 38 36 35 32 30 29 30 28 25 22 19 18 18 18 19 19 20 21 22 24 25 26 28 29 30 30 33 35 37 39 40 39 40 40 41 40 39 37
41 41 43 43 43 43 41 40 38 34 33 31 31 29 28 27 25 22 19 20 21 22 22 23 25 26 28 28 29 30 32 33 34 36 38 40 40 41 41 41 41 39 36
44 45 44 45 45 43 42 41 39 37 36 34 34 32 31 30 31 30 30 28 27 26 26 28 29 31 32 33 33 33 34 34 34 36 37 39 39 42 42 40 40 41 46
46 45 45 45 43 43 42 40 39 37 36 35 33 33 31 32 32 32 33 34 35 35 34 36 37 38 38 38 38 38 38 38 38 39 39 40 40 41 43 43 45 46 48
45 45 45 44 44 43 43 41 40 39 38 37 35 32 31 31 33 33 33 33 34 36 38 40 41 42 43 43 43 43 43 43 42 43 45 46 46 46 47 48 47 48 50
43 43 43 43 43 42 42 42 41 38 35 34 34 34 33 33 33 34 36 36 36 36 37 38 39 39 40 41 41 42 42 44 45 45 45 45 45 46 47 47 48 46 46
42 42 42 42 41 40 40 39 38 38 37 35 34 33 33 35 35 35 36 37 39 40 40 42 42 44 44 44 44 44 46 46 47 47 48 48 49 49 50 49 49 49 49
41 41 42 41 41 40 39 36 36 37 39 40 39 38 39 39 39 38 39 40 40 40 40 41 41 42 42 43 44 44 45 47 47 47 47 47 48 49 49 49 50 50 50
44 44 44 45 47 46 45 44 40 38 38 40 41 43 44 44 44 42 41 41 42 43 44 45 45 46 47 47 48 48 49 49 50 50 49 49 49 49 49 50 52 53 54
48 48 49 49 50 50 50 50 50 48 46 44 44 44 45 47 49 50 50 51 51 51 51 51 52 52 53 54 54 54 54 54 53 53 52 51 53 54 54 55 56 58 59
54 53 54 54 56 56 54 53 52 52 53 54 55 55 56 56 57 57 58 59 60 61 62 62 62 59 56 57 58 58 56 55 56 56 57 56 56 58 59 60 60 61 62
57 60 61 58 59 59 58 57 57 56 56 56 56 57 57 58 59 59 60 61 62 62 62 61 61 61 60 59 59 60 59 60 60 61 62 63 63 65 64 64 64 65 66
61 61 61 61 61 61 61 60 60 59 58 57 57 57 57 58 59 61 62 64 63 62 62 62 62 63 64 64 64 64 63 64 64 65 67 69 69 69 70 69 68 69 67
64 64 64 64 65 65 65 63 62 61 59 59 58 59 60 60 61 62 63 64 64 64 63 64 65 65 66 68 70 70 71 71 70 70 72 74 74 73 73 72 71 71 67
67 67 67 67 66 66 65 65 65 65 63 62 63 64 64 65 66 65 65 65 68 68 68 69 69 70 70 72 74 75 76 77 76 76 76 76 76 74 73 72 71 69 66
71 71 70 69 69 68 67 68 68 69 68 68 68 69 69 69 70 70 71 70 71 73 73 75 76 78 76 77 78 79 78 77 78 78 75 73 70 69 68 68 68 67 65
74 75 74 73 72 71 69 68 71 73 71 70 71 72 72 72 73 73 72 71 73 75 76 77 79 79 80 82 82 81 79 77 76 74 71 71 71 72 72 71 69 67 65
Wind_Direction
320 321 320 312 308 308 312 318 326 326 324 326 331 339 331 332 296 257 238 233 231 234 239 245 245 247 252 258 262 267 273 277 279 283 284 285 285 284 284 283 282 280 280
324 326 325 321 308 306 312 316 325 332 329 333 337 349 345 338 333 266 232 227 227 233 238 242 249 252 254 256 263 271 277 280 280 281 282 285 285 286 285 285 284 281 283
315 323 327 322 310 307 309 316 324 333 335 337 343 353 358 349 338 299 231 226 226 232 240 245 249 252 252 262 267 275 277 275 274 271 277 282 287 289 288 289 288 286 283
306 310 315 320 320 315 313 315 321 329 338 339 347 349 8 8 355 336 233 230 231 233 240 243 247 250 260 265 271 268 268 266 265 272 273 276 283 292 296 295 297 298 297
301 308 312 314 323 327 326 321 322 328 334 342 346 351 359 18 14 1 293 236 235 235 237 242 245 254 264 266 262 266 265 260 271 273 275 279 280 286 293 295 299 304 307
299 305 313 317 312 317 324 328 329 333 331 336 341 349 352 356 11 6 342 312 277 260 257 261 264 262 260 259 264 263 264 269 277 276 279 278 279 279 283 286 294 300 300
302 308 316 315 316 321 321 323 326 333 334 333 335 334 338 340 337 322 294 277 277 274 271 268 264 259 261 261 260 262 266 271 274 278 278 280 279 282 279 278 286 292 296
304 309 309 311 313 319 322 321 318 321 327 330 331 328 328 327 318 304 292 279 268 262 261 260 260 263 265 264 262 264 267 271 274 277 278 281 280 279 276 279 281 283 289
303 306 306 309 313 315 315 315 316 314 312 314 318 322 323 318 308 303 294 277 265 261 262 262 261 264 270 275 277 277 275 271 268 269 272 275 277 276 277 279 282 285 287
300 300 304 307 309 311 312 310 310 310 308 306 304 305 304 306 305 298 281 272 272 271 266 264 267 270 274 277 279 280 282 280 276 272 274 277 277 277 279 281 286 289 290
297 301 304 307 309 308 307 307 308 308 304 302 301 299 296 292 291 286 283 285 285 284 276 272 272 275 277 279 281 281 279 276 275 275 274 275 276 275 278 281 284 288 287
298 300 301 301 301 302 304 306 308 309 307 301 298 296 296 291 285 282 276 277 280 277 277 277 277 275 273 274 274 275 276 277 277 277 278 278 279 279 278 280 280 281 283
296 297 297 297 300 303 304 304 305 306 304 303 301 300 298 294 291 286 282 279 277 276 273 271 270 271 271 272 272 272 273 272 272 272 273 276 277 277 278 278 277 279 282
300 300 302 304 306 306 305 303 301 301 302 301 301 298 296 295 294 291 286 281 278 276 275 274 274 274 273 273 273 274 274 275 274 274 272 274 275 277 279 278 281 280 282
301 303 305 306 306 305 303 302 301 300 300 299 298 297 296 294 292 290 289 287 285 282 279 277 277 277 277 278 278 277 275 275 275 274 275 276 276 277 279 280 282 281 281
304 305 304 304 304 303 303 303 303 302 301 300 298 294 292 291 289 287 285 283 282 281 281 281 281 281 280 278 277 276 277 278 278 278 278 277 276 277 278 278 278 278 279
303 303 304 303 302 301 301 299 299 298 297 297 295 292 290 287 284 281 279 278 278 278 278 278 278 280 280 280 280 279 280 280 280 280 280 281 281 280 281 282 284 285 284
304 304 302 301 301 301 299 299 296 294 291 287 287 288 288 288 285 282 279 278 278 277 280 281 282 283 282 281 279 278 277 276 277 277 278 278 279 279 280 281 281 281 282
304 304 304 303 300 299 298 297 296 294 291 288 286 285 284 285 285 284 283 283 282 280 281 282 284 284 283 283 279 277 277 277 278 277 277 278 279 281 282 282 282 281 282
303 303 302 302 301 300 299 298 296 294 292 291 288 286 285 284 283 283 283 283 284 284 285 285 285 282 277 276 275 275 276 277 278 279 280 280 281 283 283 282 283 283 284
303 304 305 303 301 299 297 295 294 293 292 291 290 289 288 287 286 286 284 282 282 283 283 282 281 279 278 279 278 276 275 277 279 280 281 282 284 284 284 283 283 283 284
302 301 300 299 298 297 295 294 293 293 291 289 287 286 285 284 283 283 284 286 287 287 286 285 283 283 283 283 282 280 279 277 277 279 281 282 283 284 284 284 283 283 283
299 298 297 296 295 295 294 293 291 291 290 289 288 287 286 285 284 284 284 284 284 284 282 282 282 282 282 282 282 280 279 279 279 279 280 282 282 282 283 283 282 283 283
295 295 293 292 292 290 289 288 288 287 287 286 285 284 285 284 283 282 282 281 280 280 279 278 277 276 277 279 278 278 279 279 278 279 280 281 282 283 282 281 280 279 279
294 294 293 292 290 289 289 288 287 285 284 285 285 285 284 284 283 283 283 282 282 281 279 278 277 276 274 274 276 277 279 282 283 281 281 281 280 280 279 278 277 277 277
292 292 292 291 290 289 288 287 285 286 286 286 285 284 284 283 283 283 282 285 284 284 284 285 284 282 282 281 280 281 281 282 281 281 280 279 276 275 274 273 274 275 275
Height
5803 5798 5792 5786 5782 5779 5773 5767 5760 5748 5736 5723 5706 5690 5677 5666 5662 5667 5677 5690 5700 5709 5717 5723 5726 5730 5733 5735 5737 5737 5737 5736 5735 5733 5731 5727 5726 5723 5722 5721 5719 5719 5718
5799 5794 5787 5782 5778 5774 5768 5761 5753 5742 5730 5718 5703 5688 5677 5669 5664 5667 5674 5684 5694 5703 5709 5714 5719 5723 5725 5727 5728 5728 5727 5727 5726 5724 5723 5720 5718 5716 5714 5713 5712 5710 5709
5796 5790 5784 5778 5773 5768 5761 5755 5747 5737 5726 5715 5703 5691 5681 5675 5671 5671 5676 5685 5692 5699 5705 5709 5712 5716 5718 5719 5719 5719 5719 5718 5718 5718 5716 5714 5711 5709 5708 5706 5705 5703 5701
5791 5787 5781 5775 5769 5763 5756 5750 5742 5734 5724 5714 5704 5695 5686 5681 5678 5677 5680 5686 5691 5696 5700 5704 5707 5710 5711 5711 5711 5711 5712 5711 5711 5710 5710 5708 5706 5705 5701 5701 5699 5697 5694
5785 5780 5775 5770 5765 5759 5753 5746 5739 5732 5724 5715 5706 5699 5692 5686 5684 5684 5685 5689 5691 5693 5696 5699 5702 5702 5704 5704 5704 5705 5705 5705 5704 5703 5702 5702 5700 5699 5698 5694 5692 5691 5689
5779 5776 5771 5766 5761 5755 5749 5743 5736 5729 5723 5716 5709 5701 5696 5691 5688 5688 5689 5691 5692 5693 5694 5695 5696 5697 5698 5699 5699 5699 5699 5699 5697 5697 5695 5694 5693 5692 5692 5691 5688 5684 5681
5774 5770 5766 5761 5757 5751 5745 5739 5734 5728 5721 5715 5710 5704 5698 5694 5692 5690 5689 5690 5691 5691 5691 5691 5691 5692 5692 5692 5692 5692 5692 5692 5690 5689 5688 5687 5684 5684 5684 5684 5683 5680 5674
5767 5764 5760 5756 5752 5747 5741 5736 5730 5724 5720 5714 5709 5705 5700 5696 5693 5690 5689 5688 5687 5687 5687 5687 5687 5686 5686 5686 5685 5684 5684 5684 5683 5681 5680 5678 5677 5676 5675 5675 5675 5674 5670
5759 5756 5752 5748 5744 5739 5734 5730 5724 5718 5714 5711 5707 5703 5698 5695 5692 5690 5688 5686 5684 5684 5683 5682 5682 5681 5680 5679 5678 5677 5676 5675 5673 5672 5671 5670 5668 5667 5666 5664 5663 5664 5663
5752 5748 5744 5740 5735 5731 5727 5723 5718 5714 5710 5705 5702 5698 5696 5692 5689 5687 5684 5682 5681 5679 5677 5676 5675 5675 5674 5673 5671 5669 5668 5667 5665 5664 5663 5662 5660 5659 5656 5654 5653 5652 5651
5743 5739 5735 5730 5726 5722 5718 5715 5711 5707 5703 5699 5696 5693 5690 5688 5685 5683 5681 5678 5676 5674 5672 5671 5670 5668 5667 5666 5664 5662 5660 5659 5657 5655 5654 5652 5650 5648 5646 5645 5643 5642 5640
5734 5729 5725 5721 5716 5713 5710 5706 5702 5698 5695 5691 5688 5685 5683 5680 5678 5676 5674 5673 5670 5669 5667 5665 5662 5661 5659 5657 5656 5654 5652 5650 5648 5646 5644 5642 5640 5638 5636 5634 5632 5631 5629
5722 5718 5714 5711 5708 5705 5701 5697 5693 5690 5686 5682 5680 5677 5674 5671 5669 5667 5666 5664 5662 5660 5657 5654 5652 5651 5648 5647 5645 5643 5641 5639 5637 5634 5632 5630 5628 5626 5624 5622 5620 5618 5617
5714 5709 5705 5701 5697 5693 5690 5688 5684 5681 5677 5673 5669 5667 5665 5663 5660 5657 5655 5653 5651 5649 5647 5644 5642 5640 5637 5635 5633 5631 5628 5626 5624 5622 5620 5617 5614 5612 5610 5608 5606 5604 5603
5703 5699 5696 5691 5688 5685 5681 5677 5673 5670 5667 5663 5660 5657 5655 5652 5650 5648 5646 5643 5641 5638 5635 5632 5630 5627 5625 5622 5620 5617 5615 5613 5610 5608 5605 5603 5601 5599 5597 5595 5593 5591 5590
5694 5690 5686 5683 5679 5675 5671 5667 5664 5660 5657 5654 5651 5648 5644 5642 5639 5636 5633 5631 5629 5627 5624 5621 5619 5615 5613 5610 5607 5604 5602 5599 5597 5594 5592 5590 5588 5585 5583 5580 5578 5577 5575
5686 5681 5677 5673 5670 5667 5663 5659 5655 5651 5648 5645 5642 5638 5635 5631 5628 5625 5622 5619 5616 5613 5610 5608 5605 5602 5599 5596 5594 5591 5589 5586 5583 5581 5578 5575 5573 5571 5568 5566 5563 5560 5559
5673 5670 5666 5662 5657 5654 5650 5647 5644 5641 5637 5633 5630 5627 5623 5620 5617 5614 5611 5607 5604 5601 5598 5594 5591 5589 5585 5584 5581 5578 5574 5571 5568 5566 5563 5560 5558 5556 5553 5550 5547 5545 5542
5662 5658 5654 5650 5645 5642 5638 5634 5630 5627 5624 5620 5617 5614 5611 5607 5604 5602 5599 5596 5592 5588 5585 5581 5577 5574 5570 5567 5565 5562 5559 5556 5552 5550 5547 5545 5542 5540 5537 5534 5530 5527 5524
5650 5646 5642 5638 5633 5629 5625 5621 5617 5613 5608 5604 5601 5597 5594 5591 5588 5585 5582 5579 5576 5573 5569 5565 5560 5555 5552 5547 5546 5544 5542 5539 5536 5533 5530 5528 5525 5521 5519 5516 5512 5508 5505
5637 5633 5629 5625 5620 5616 5612 5607 5602 5598 5594 5589 5585 5581 5578 5574 5571 5567 5563 5560 5557 5554 5550 5547 5541 5536 5532 5529 5526 5524 5524 5522 5519 5516 5511 5508 5507 5502 5499 5496 5492 5489 5485
5622 5618 5614 5609 5604 5600 5596 5591 5587 5583 5578 5573 5568 5564 5560 5556 5553 5549 5545 5540 5538 5535 5531 5528 5523 5517 5513 5509 5505 5502 5500 5499 5499 5496 5491 5487 5485 5483 5478 5475 5472 5469 5465
5606 5601 5597 5592 5585 5581 5577 5573 5566 5563 5559 5554 5550 5545 5540 5536 5533 5530 5526 5521 5515 5513 5509 5506 5503 5499 5494 5489 5484 5482 5478 5476 5474 5474 5469 5465 5463 5461 5458 5453 5450 5448 5446
5587 5583 5578 5574 5569 5561 5556 5552 5548 5543 5540 5536 5531 5526 5522 5517 5511 5507 5503 5500 5494 5490 5487 5483 5479 5476 5473 5466 5461 5458 5454 5451 5451 5450 5448 5444 5440 5438 5435 5431 5428 5426 5425
5567 5562 5557 5553 5548 5542 5537 5531 5525 5521 5519 5516 5512 5506 5501 5496 5491 5486 5481 5476 5471 5466 5462 5458 5454 5449 5449 5444 5437 5434 5433 5429 5425 5424 5425 5422 5418 5415 5411 5409 5406 5404 5404
5547 5541 5536 5531 5526 5522 5517 5510 5500 5495 5495 5494 5489 5483 5478 5473 5468 5464 5461 5454 5448 5444 5439 5433 5427 5426 5421 5417 5414 5411 5408 5406 5402 5400 5401 5398 5394 5392 5389 5385 5385 5385 5385